sat.trackr.live / text

‹ back to catalog

STARLINK-5994

NORAD 56457 · 2023-064K

PAYLOAD ACTIVE UNKNOWN

§ Identity

Operator
Country
US
Launch date
2023-05-10
Launch site
AFWTR
Launch vehicle
Mass (kg)
RCS (m²)

Purposes: comms

External: N2YO · Heavens-Above · Gunter

§ Orbital elements

Epoch: 2026-09-20T13:10:42.992544Z

Period
96.11 min
Inclination
70.0013°
Eccentricity
0.0003219
Mean motion
14.98343008 rev/d
Perigee alt
569.8 km
Apogee alt
574.3 km
Semi-major
6,950.2 km
B*
2.2204e-5
RAAN
13.1651°
Arg perigee
266.0884°
Mean anomaly
93.9907°
Rev number
18,443

§ Raw data

STARLINK-59941 56457U 23064K   26263.54910871  .00000172  00000+0  22204-4 0  99992 56457  70.0013  13.1651 0003219 266.0884  93.9907 14.98343008184433

JSON: /api/v1/satellites/56457 · /tle

For live sub-satellite position, see the globe view (requires WebGL).

§ Visibility from observer

Set your observer location to see the next 7 days of passes ≥ 10°. The values pass through the URL so the page stays shareable.

No JS? Fill the form by hand. The geolocation button needs JavaScript.